Weather History for Dallas/Ft Worth, TX

Change the Weather History Date:

Sunday, April 7, 2013

  Actual Average Record
Temperature  
Mean Temperature 67 °F 63 °F  
Max Temperature 73 °F 74 °F 97 °F (1930)
Min Temperature 61 °F 52 °F 31 °F (1971)
Degree Days  
Heating Degree Days 0 4  
Month to date heating degree days 49 32  
Since 1 July heating degree days 1918 2225  
Cooling Degree Days 2 2  
Month to date cooling degree days 4 14  
Year to date cooling degree days 37 53  
Growing Degree Days 17 (Base 50)    
Moisture  
Dew Point 58 °F    
Average Humidity 74    
Maximum Humidity 84    
Minimum Humidity 64    
Precipitation  
Precipitation 0.00 in 0.09 in 3.18 in (2002)
Month to date precipitation 0.97 0.63  
Year to date precipitation 8.98 8.91  
Snow  
Snow 0.00 in 0.00 in T in (2007)
Month to date snowfall 0.0 0.0  
Since 1 July snowfall 0.8 1.2  
Snow Depth 0.00 in    
Sea Level Pressure  
Sea Level Pressure 29.81 in    
Wind  
Wind Speed 18 mph (South)    
Max Wind Speed 28 mph    
Max Gust Speed 36 mph    
Visibility 10 miles    
Events      
T = Trace of Precipitation, MM = Missing Value Source: NWS Daily Summary

Daily Weather History Graph

Daily Weather History Graph

Search for Another Location

Airport:

Trip Planner

Search our weather history database for the weather conditions in past years. The results will help you decide how hot, cold, wet, or windy it might be!

Date:

Astronomy

Apr. 07, 2013 Rise Set
Actual Time 7:07 AM CDT 7:52 PM CDT
Civil Twilight 6:42 AM CDT 8:17 PM CDT
Nautical Twilight 6:13 AM CDT 8:47 PM CDT
Astronomical Twilight 5:43 AM CDT 9:17 PM CDT
Moon 5:18 AM CDT (4/7) 5:32 PM CDT (4/7)
Length of Visible Light 13h 34m
Length of Day
12h 44m
Waning Crescent, 8% of the Moon is Illuminated
Apr 7
Waning Crescent
Apr 10
New
Apr 18
First Quarter
Apr 25
Full
May 2
Last Quarter

Hourly Weather History & Observations

Time (CDT) Temp. Dew Point Humidity Pressure Visibility Wind Dir Wind Speed Gust Speed Precip Events Conditions
12:53 AM 64.9 °F 55.9 °F 73% 29.86 in 10.0 mi South 16.1 mph - N/A   Mostly Cloudy
1:53 AM 64.0 °F 55.0 °F 73% 29.86 in 10.0 mi South 12.7 mph - N/A   Mostly Cloudy
2:53 AM 62.1 °F 55.0 °F 78% 29.85 in 10.0 mi South 13.8 mph - N/A   Scattered Clouds
3:40 AM 62.1 °F 55.9 °F 80% 29.86 in 10.0 mi South 13.8 mph - N/A   Mostly Cloudy
3:53 AM 62.1 °F 55.9 °F 80% 29.84 in 10.0 mi South 16.1 mph 23.0 mph N/A   Mostly Cloudy
4:33 AM 62.1 °F 55.9 °F 80% 29.86 in 10.0 mi South 19.6 mph 25.3 mph N/A   Overcast
4:53 AM 62.1 °F 57.0 °F 84% 29.84 in 10.0 mi South 13.8 mph - N/A   Overcast
5:22 AM 63.0 °F 57.0 °F 81% 29.86 in 10.0 mi South 18.4 mph - N/A   Overcast
5:53 AM 63.0 °F 57.0 °F 81% 29.85 in 10.0 mi South 16.1 mph - N/A   Overcast
6:53 AM 63.0 °F 57.0 °F 81% 29.86 in 10.0 mi South 16.1 mph 20.7 mph N/A   Overcast
7:53 AM 63.0 °F 57.9 °F 84% 29.87 in 10.0 mi South 12.7 mph - N/A   Overcast
8:53 AM 64.0 °F 57.9 °F 80% 29.88 in 10.0 mi South 16.1 mph - N/A   Overcast
9:53 AM 64.0 °F 57.9 °F 80% 29.88 in 10.0 mi SSE 13.8 mph - N/A   Overcast
10:53 AM 64.9 °F 57.9 °F 78% 29.88 in 10.0 mi South 19.6 mph 25.3 mph N/A   Overcast
11:53 AM 66.0 °F 59.0 °F 78% 29.87 in 10.0 mi South 18.4 mph 26.5 mph N/A   Overcast
12:53 PM 68.0 °F 59.0 °F 73% 29.84 in 10.0 mi South 19.6 mph 27.6 mph N/A   Overcast
1:53 PM 70.0 °F 60.1 °F 71% 29.81 in 10.0 mi South 19.6 mph - N/A   Overcast
2:53 PM 70.0 °F 60.1 °F 71% 29.78 in 10.0 mi South 21.9 mph 29.9 mph N/A   Overcast
3:53 PM 71.1 °F 60.1 °F 68% 29.77 in 10.0 mi South 25.3 mph 29.9 mph N/A   Overcast
4:47 PM 71.6 °F 60.8 °F 69% 29.76 in 10.0 mi South 17.3 mph 27.6 mph N/A   Overcast
4:53 PM 73.0 °F 60.1 °F 64% 29.74 in 10.0 mi South 21.9 mph 27.6 mph N/A   Overcast
5:53 PM 73.0 °F 60.1 °F 64% 29.73 in 10.0 mi South 16.1 mph 29.9 mph N/A   Overcast
6:53 PM 73.0 °F 60.1 °F 64% 29.73 in 10.0 mi South 18.4 mph - N/A   Overcast
7:53 PM 72.0 °F 60.1 °F 66% 29.73 in 10.0 mi SSE 15.0 mph - N/A   Overcast
8:53 PM 70.0 °F 60.1 °F 71% 29.72 in 10.0 mi SSE 16.1 mph - N/A   Scattered Clouds
9:53 PM 70.0 °F 59.0 °F 68% 29.72 in 10.0 mi SSE 17.3 mph - N/A   Partly Cloudy
10:53 PM 70.0 °F 59.0 °F 68% 29.72 in 10.0 mi SSE 18.4 mph 28.8 mph N/A   Clear
11:53 PM 70.0 °F 57.9 °F 65% 29.72 in 10.0 mi South 24.2 mph 31.1 mph N/A   Clear